WZZ408 LIME-LWSK

Flight info

Callsign WZZ408
Flight time 1h 32m
Altitude 37000
Route OSKOR DCT ADOSA DCT CHI DCT SOLGU DCT KOGAT DCT GOSTI
Aircraft A320/M-SDE3FGHIRWY/LB1

Departure

Time 2026-04-20 13:46
Airport Il Caravaggio International Airport (LIME)

Arrival

Time 2026-04-20 15:19
Airport Skopje International Airport (LWSK)
Time Latitude Longitude Altitude Speed Heading
2026-04-20 12:35 45.66805 9.69234 790 ft 0 kts 194°
2026-04-20 13:31 45.66804 9.69234 790 ft 1 kts 194°
2026-04-20 13:31 45.66795 9.69230 817 ft 2 kts 194°
2026-04-20 13:31 45.66777 9.69224 779 ft 2 kts 194°
2026-04-20 13:32 45.66774 9.69223 782 ft 1 kts 194°
2026-04-20 13:32 45.66772 9.69212 790 ft 1 kts 268°
2026-04-20 13:32 45.66785 9.69176 790 ft 5 kts 294°
2026-04-20 13:33 45.66808 9.69133 791 ft 6 kts 315°
2026-04-20 13:33 45.66842 9.69092 791 ft 7 kts 321°
2026-04-20 13:33 45.66861 9.69072 791 ft 0 kts 323°
2026-04-20 13:34 45.66867 9.69065 791 ft 3 kts 323°
2026-04-20 13:35 45.66891 9.69040 791 ft 5 kts 322°
2026-04-20 13:35 45.66932 9.68993 791 ft 5 kts 331°
2026-04-20 13:35 45.66966 9.68986 791 ft 6 kts
2026-04-20 13:35 45.66974 9.68988 791 ft 0 kts 13°
2026-04-20 13:40 45.66982 9.68991 791 ft 7 kts 13°
2026-04-20 13:40 45.67048 9.68929 792 ft 14 kts 244°
2026-04-20 13:40 45.66953 9.68884 792 ft 15 kts 166°
2026-04-20 13:41 45.66913 9.69014 791 ft 16 kts 96°
2026-04-20 13:41 45.66895 9.69188 790 ft 19 kts 104°
2026-04-20 13:41 45.66860 9.69380 788 ft 21 kts 106°
2026-04-20 13:41 45.66813 9.69592 787 ft 23 kts 103°
2026-04-20 13:42 45.66776 9.69828 785 ft 25 kts 105°
2026-04-20 13:42 45.66679 9.70350 781 ft 29 kts 105°
2026-04-20 13:42 45.66626 9.70635 778 ft 30 kts 104°
2026-04-20 13:43 45.66570 9.70935 776 ft 32 kts 103°
2026-04-20 13:43 45.66501 9.71228 773 ft 30 kts 109°
2026-04-20 13:43 45.66448 9.71512 771 ft 29 kts 104°
2026-04-20 13:43 45.66464 9.71747 768 ft 13 kts 75°
2026-04-20 13:44 45.66470 9.71776 768 ft 0 kts 75°
2026-04-20 13:45 45.66471 9.71782 768 ft 2 kts 75°
2026-04-20 13:45 45.66482 9.71840 767 ft 9 kts 75°
2026-04-20 13:45 45.66521 9.71922 766 ft 12 kts 29°
2026-04-20 13:45 45.66566 9.71884 767 ft 8 kts 284°
2026-04-20 13:46 45.66602 9.71687 769 ft 52 kts 283°
2026-04-20 13:46 45.66762 9.70809 775 ft 127 kts 285°
2026-04-20 13:46 45.67036 9.69329 895 ft 174 kts 283°
2026-04-20 13:46 45.67219 9.67624 1699 ft 172 kts 268°
2026-04-20 13:47 45.66928 9.66009 2498 ft 166 kts 237°
2026-04-20 13:47 45.66139 9.64747 2967 ft 175 kts 221°
2026-04-20 13:47 45.65176 9.63620 3413 ft 184 kts 217°
2026-04-20 13:47 45.64179 9.62424 3965 ft 188 kts 223°
2026-04-20 13:48 45.63229 9.61118 4641 ft 189 kts 226°
2026-04-20 13:48 45.62301 9.59792 5308 ft 191 kts 227°
2026-04-20 13:48 45.61359 9.58427 6043 ft 196 kts 227°
2026-04-20 13:48 45.60361 9.57004 6462 ft 209 kts 226°
2026-04-20 13:49 45.59296 9.55513 6913 ft 217 kts 222°
2026-04-20 13:49 45.57946 9.54606 7489 ft 222 kts 190°
2026-04-20 13:49 45.56380 9.54875 7913 ft 238 kts 157°
2026-04-20 13:49 45.55110 9.56506 8409 ft 258 kts 119°
2026-04-20 13:50 45.54723 9.59001 9000 ft 269 kts 82°
2026-04-20 13:50 45.55394 9.61520 9618 ft 279 kts 55°
2026-04-20 13:50 45.56594 9.63786 10132 ft 293 kts 46°
2026-04-20 13:50 45.57989 9.65969 10638 ft 301 kts 43°
2026-04-20 13:51 45.59430 9.68121 11357 ft 304 kts 43°
2026-04-20 13:51 45.60896 9.70332 12228 ft 301 kts 43°
2026-04-20 13:51 45.62262 9.72465 13545 ft 280 kts 43°
2026-04-20 13:51 45.63517 9.74484 14477 ft 274 kts 45°
2026-04-20 13:52 45.64520 9.76883 14987 ft 290 kts 67°
2026-04-20 13:52 45.64782 9.79785 15401 ft 306 kts 96°
2026-04-20 13:52 45.64255 9.82805 15734 ft 320 kts 107°
2026-04-20 13:52 45.63571 9.85921 15986 ft 336 kts 108°
2026-04-20 13:53 45.62840 9.89151 16245 ft 352 kts 108°
2026-04-20 13:53 45.62061 9.92570 16485 ft 368 kts 108°
2026-04-20 13:53 45.61258 9.96110 16686 ft 384 kts 108°
2026-04-20 13:53 45.60416 9.99859 16865 ft 400 kts 108°
2026-04-20 13:54 45.59567 10.03674 17012 ft 415 kts 108°
2026-04-20 13:54 45.58681 10.07688 17145 ft 430 kts 108°
2026-04-20 13:54 45.57765 10.11834 17290 ft 444 kts 108°
2026-04-20 13:54 45.56816 10.16114 17411 ft 457 kts 108°
2026-04-20 13:55 45.55841 10.20489 17612 ft 467 kts 108°
2026-04-20 13:55 45.54853 10.24895 18013 ft 472 kts 108°
2026-04-20 13:55 45.53842 10.29390 18445 ft 476 kts 108°
2026-04-20 13:55 45.52826 10.33908 18856 ft 479 kts 108°
2026-04-20 13:56 45.52030 10.38472 19250 ft 482 kts 100°
2026-04-20 13:56 45.51462 10.43210 19641 ft 485 kts 99°
2026-04-20 13:56 45.50884 10.47984 20035 ft 488 kts 102°
2026-04-20 13:56 45.50042 10.52727 20409 ft 491 kts 104°
2026-04-20 13:57 45.49220 10.57405 20762 ft 494 kts 104°
2026-04-20 13:57 45.48419 10.62225 21123 ft 497 kts 102°
2026-04-20 13:57 45.47691 10.67058 21466 ft 500 kts 101°
2026-04-20 13:57 45.46995 10.71858 21790 ft 502 kts 101°
2026-04-20 13:58 45.46279 10.76716 22105 ft 505 kts 101°
2026-04-20 13:58 45.45525 10.81642 22484 ft 506 kts 102°
2026-04-20 13:58 45.44744 10.86552 22960 ft 505 kts 102°
2026-04-20 13:58 45.43956 10.91369 23452 ft 504 kts 102°
2026-04-20 13:59 45.43150 10.96242 23858 ft 504 kts 102°
2026-04-20 13:59 45.42342 11.01112 24266 ft 504 kts 102°
2026-04-20 13:59 45.41544 11.05923 24674 ft 503 kts 102°
2026-04-20 13:59 45.40739 11.10789 25081 ft 503 kts 102°
2026-04-20 14:00 45.39937 11.15640 25521 ft 502 kts 102°
2026-04-20 14:00 45.39139 11.20459 26191 ft 496 kts 102°
2026-04-20 14:00 45.38351 11.25206 26901 ft 489 kts 102°
2026-04-20 14:00 45.37580 11.29840 27653 ft 483 kts 102°
2026-04-20 14:01 45.36811 11.34453 28402 ft 476 kts 102°
2026-04-20 14:01 45.36054 11.39006 29168 ft 469 kts 102°
2026-04-20 14:01 45.35296 11.43575 29340 ft 477 kts 102°
2026-04-20 14:01 45.34541 11.48116 29917 ft 471 kts 102°
2026-04-20 14:02 45.33798 11.52533 31081 ft 449 kts 102°
2026-04-20 14:02 45.33067 11.56846 31480 ft 452 kts 102°
2026-04-20 14:02 45.32328 11.61198 31616 ft 459 kts 102°
2026-04-20 14:02 45.31576 11.65638 31819 ft 463 kts 102°
2026-04-20 14:03 45.30817 11.70103 32168 ft 464 kts 102°
2026-04-20 14:03 45.30054 11.74570 32520 ft 464 kts 102°
2026-04-20 14:03 45.29296 11.78991 32882 ft 465 kts 102°
2026-04-20 14:03 45.28525 11.83488 33019 ft 470 kts 102°
2026-04-20 14:04 45.27740 11.88051 33158 ft 476 kts 103°
2026-04-20 14:04 45.26954 11.92602 33291 ft 482 kts 103°
2026-04-20 14:04 45.26150 11.97260 33425 ft 487 kts 103°
2026-04-20 14:04 45.25338 12.01963 33619 ft 491 kts 103°
2026-04-20 14:05 45.24526 12.06658 33952 ft 492 kts 103°
2026-04-20 14:05 45.23708 12.11375 34295 ft 491 kts 103°
2026-04-20 14:05 45.22889 12.16067 34641 ft 490 kts 103°
2026-04-20 14:05 45.22060 12.20785 34971 ft 489 kts 103°
2026-04-20 14:06 45.21247 12.25407 35286 ft 488 kts 103°
2026-04-20 14:06 45.20421 12.30097 35599 ft 488 kts 103°
2026-04-20 14:06 45.19599 12.34763 35911 ft 487 kts 103°
2026-04-20 14:06 45.18787 12.39368 36190 ft 486 kts 103°
2026-04-20 14:07 45.17965 12.44019 36473 ft 486 kts 103°
2026-04-20 14:07 45.17136 12.48676 36755 ft 485 kts 103°
2026-04-20 14:07 45.16306 12.53322 36931 ft 486 kts 103°
2026-04-20 14:07 45.15465 12.58015 36965 ft 491 kts 103°
2026-04-20 14:08 45.13777 12.67450 36962 ft 501 kts 103°
2026-04-20 14:08 45.12050 12.77038 36963 ft 501 kts 103°
2026-04-20 14:09 45.10330 12.86541 36961 ft 501 kts 103°
2026-04-20 14:09 45.08578 12.96136 36962 ft 501 kts 103°
2026-04-20 14:10 45.06838 13.05631 36962 ft 501 kts 104°
2026-04-20 14:10 45.05084 13.15129 36962 ft 501 kts 104°
2026-04-20 14:11 45.03312 13.24692 36963 ft 501 kts 104°
2026-04-20 14:11 45.01559 13.34158 36967 ft 500 kts 104°
2026-04-20 14:12 44.99783 13.43698 36966 ft 500 kts 104°
2026-04-20 14:12 44.98001 13.53173 36971 ft 500 kts 104°
2026-04-20 14:13 44.96204 13.62688 36972 ft 500 kts 104°
2026-04-20 14:13 44.94415 13.72149 36975 ft 500 kts 104°
2026-04-20 14:14 44.92602 13.81665 36975 ft 500 kts 104°
2026-04-20 14:14 44.90789 13.91104 36977 ft 501 kts 104°
2026-04-20 14:15 44.88956 14.00591 36973 ft 501 kts 104°
2026-04-20 14:15 44.87131 14.10029 36974 ft 501 kts 104°
2026-04-20 14:16 44.85282 14.19546 36978 ft 501 kts 104°
2026-04-20 14:16 44.83441 14.28961 36977 ft 501 kts 104°
2026-04-20 14:17 44.81585 14.38414 36982 ft 501 kts 104°
2026-04-20 14:17 44.79719 14.47873 36980 ft 501 kts 105°
2026-04-20 14:18 44.77838 14.57360 36982 ft 502 kts 105°
2026-04-20 14:18 44.75955 14.66795 36984 ft 502 kts 105°
2026-04-20 14:19 44.74068 14.76225 36982 ft 502 kts 105°
2026-04-20 14:19 44.72166 14.85686 36984 ft 502 kts 105°
2026-04-20 14:20 44.70264 14.95105 36983 ft 502 kts 105°
2026-04-20 14:20 44.68338 15.04575 36978 ft 502 kts 105°
2026-04-20 14:21 44.66425 15.13963 36978 ft 502 kts 105°
2026-04-20 14:21 44.64489 15.23429 36980 ft 502 kts 105°
2026-04-20 14:22 44.62553 15.32824 36986 ft 503 kts 105°
2026-04-20 14:22 44.60606 15.42223 36986 ft 502 kts 105°
2026-04-20 14:23 44.58643 15.51658 36984 ft 503 kts 105°
2026-04-20 14:23 44.56692 15.61032 36975 ft 504 kts 105°
2026-04-20 14:24 44.54723 15.70438 36982 ft 503 kts 105°
2026-04-20 14:24 44.52731 15.79875 36987 ft 503 kts 105°
2026-04-20 14:25 44.50742 15.89237 36979 ft 503 kts 105°
2026-04-20 14:25 44.48735 15.98680 36984 ft 503 kts 105°
2026-04-20 14:26 44.46737 16.08032 36980 ft 503 kts 106°
2026-04-20 14:26 44.44732 16.17378 36985 ft 503 kts 106°
2026-04-20 14:27 44.42702 16.26783 36982 ft 503 kts 106°
2026-04-20 14:27 44.40685 16.36114 36979 ft 503 kts 106°
2026-04-20 14:28 44.38640 16.45517 36980 ft 503 kts 106°
2026-04-20 14:28 44.36328 16.54687 36979 ft 503 kts 120°
2026-04-20 14:29 44.32692 16.63102 36975 ft 504 kts 122°
2026-04-20 14:29 44.29042 16.71388 36975 ft 504 kts 122°
2026-04-20 14:30 44.25350 16.79755 36975 ft 504 kts 122°
2026-04-20 14:30 44.21676 16.88057 36985 ft 504 kts 122°
2026-04-20 14:31 44.18013 16.96331 36984 ft 504 kts 122°
2026-04-20 14:31 44.14321 17.04642 36988 ft 504 kts 122°
2026-04-20 14:32 44.10635 17.12909 36989 ft 504 kts 122°
2026-04-20 14:32 44.06925 17.21204 36987 ft 503 kts 122°
2026-04-20 14:33 44.03229 17.29433 36977 ft 503 kts 122°
2026-04-20 14:33 43.99509 17.37699 36976 ft 503 kts 122°
2026-04-20 14:34 43.95811 17.45903 36969 ft 503 kts 123°
2026-04-20 14:34 43.92725 17.52742 36963 ft 503 kts 122°
2026-04-20 14:35 43.88395 17.62315 36962 ft 501 kts 123°
2026-04-20 14:35 43.85294 17.69139 36958 ft 501 kts 123°
2026-04-20 14:36 43.81567 17.77318 36955 ft 500 kts 123°
2026-04-20 14:36 43.77854 17.85439 36947 ft 500 kts 123°
2026-04-20 14:37 43.74139 17.93541 36926 ft 500 kts 123°
2026-04-20 14:37 43.70392 18.01682 36926 ft 501 kts 123°
2026-04-20 14:38 43.66666 18.09770 36926 ft 500 kts 123°
2026-04-20 14:38 43.62940 18.17834 36927 ft 500 kts 123°
2026-04-20 14:39 43.59188 18.25954 36929 ft 500 kts 123°
2026-04-20 14:39 43.55449 18.33997 36928 ft 500 kts 123°
2026-04-20 14:40 43.51670 18.42086 36935 ft 500 kts 123°
2026-04-20 14:40 43.47923 18.50127 36930 ft 500 kts 123°
2026-04-20 14:41 43.44163 18.58154 36932 ft 501 kts 123°
2026-04-20 14:41 43.40367 18.66220 36928 ft 501 kts 123°
2026-04-20 14:42 43.36593 18.74226 36943 ft 500 kts 123°
2026-04-20 14:42 43.32795 18.82265 36944 ft 500 kts 123°
2026-04-20 14:43 43.29019 18.90240 36950 ft 500 kts 123°
2026-04-20 14:43 43.25233 18.98220 36963 ft 500 kts 123°
2026-04-20 14:44 43.21417 19.06245 36958 ft 500 kts 123°
2026-04-20 14:44 43.17626 19.14172 36957 ft 499 kts 123°
2026-04-20 14:45 43.13809 19.22138 36963 ft 500 kts 123°
2026-04-20 14:45 43.10001 19.30079 36963 ft 500 kts 123°
2026-04-20 14:46 43.06171 19.38042 36951 ft 499 kts 123°
2026-04-20 14:46 43.02349 19.45949 36963 ft 500 kts 124°
2026-04-20 14:47 42.98527 19.53832 36966 ft 500 kts 123°
2026-04-20 14:48 42.92742 19.65741 36980 ft 501 kts 124°
2026-04-20 14:48 42.88968 19.73499 36606 ft 487 kts 123°
2026-04-20 14:48 42.87090 19.77349 36079 ft 486 kts 123°
2026-04-20 14:49 42.85206 19.81205 35475 ft 486 kts 123°
2026-04-20 14:49 42.83332 19.85040 34885 ft 487 kts 123°
2026-04-20 14:49 42.81464 19.88852 34262 ft 489 kts 123°
2026-04-20 14:49 42.79563 19.92726 33578 ft 491 kts 122°
2026-04-20 14:50 42.77661 19.96596 32934 ft 490 kts 123°
2026-04-20 14:50 42.75762 20.00455 32456 ft 487 kts 123°
2026-04-20 14:50 42.73907 20.04219 31985 ft 483 kts 123°
2026-04-20 14:50 42.72040 20.08007 31507 ft 479 kts 123°
2026-04-20 14:51 42.70184 20.11771 31023 ft 475 kts 123°
2026-04-20 14:51 42.68345 20.15486 30563 ft 471 kts 123°
2026-04-20 14:51 42.66538 20.19126 30092 ft 468 kts 123°
2026-04-20 14:51 42.64720 20.22788 29597 ft 464 kts 123°
2026-04-20 14:52 42.62913 20.26428 29079 ft 460 kts 123°
2026-04-20 14:52 42.61150 20.29978 28585 ft 457 kts 123°
2026-04-20 14:52 42.59379 20.33546 28087 ft 453 kts 123°
2026-04-20 14:52 42.57619 20.37089 27619 ft 449 kts 124°
2026-04-20 14:53 42.55879 20.40583 27150 ft 446 kts 124°
2026-04-20 14:53 42.54160 20.44030 26688 ft 443 kts 124°
2026-04-20 14:53 42.52439 20.47473 26234 ft 440 kts 124°
2026-04-20 14:53 42.50714 20.50919 25801 ft 437 kts 124°
2026-04-20 14:54 42.49011 20.54313 25393 ft 434 kts 124°
2026-04-20 14:54 42.47340 20.57646 24996 ft 431 kts 124°
2026-04-20 14:54 42.45664 20.60983 24597 ft 428 kts 125°
2026-04-20 14:54 42.43984 20.64326 24216 ft 425 kts 125°
2026-04-20 14:55 42.42321 20.67632 23825 ft 422 kts 125°
2026-04-20 14:55 42.40689 20.70874 23411 ft 420 kts 125°
2026-04-20 14:55 42.39050 20.74121 22944 ft 416 kts 125°
2026-04-20 14:55 42.37416 20.77352 22482 ft 413 kts 125°
2026-04-20 14:56 42.35792 20.80556 22045 ft 410 kts 125°
2026-04-20 14:56 42.34210 20.83682 21619 ft 406 kts 125°
2026-04-20 14:56 42.32620 20.86826 21191 ft 403 kts 125°
2026-04-20 14:56 42.31042 20.89937 20771 ft 399 kts 125°
2026-04-20 14:57 42.29466 20.93041 20350 ft 396 kts 126°
2026-04-20 14:57 42.27926 20.96068 19916 ft 393 kts 125°
2026-04-20 14:57 42.26381 20.99108 19534 ft 390 kts 125°
2026-04-20 14:57 42.24855 21.02117 19130 ft 387 kts 125°
2026-04-20 14:58 42.23332 21.05115 18726 ft 384 kts 125°
2026-04-20 14:58 42.21824 21.08077 18336 ft 381 kts 126°
2026-04-20 14:58 42.20340 21.10981 17926 ft 378 kts 126°
2026-04-20 14:58 42.18847 21.13899 17483 ft 375 kts 126°
2026-04-20 14:59 42.17363 21.16800 17075 ft 372 kts 126°
2026-04-20 14:59 42.15893 21.19671 16650 ft 370 kts 126°
2026-04-20 14:59 42.14455 21.22477 16237 ft 367 kts 126°
2026-04-20 14:59 42.13001 21.25309 15819 ft 364 kts 126°
2026-04-20 15:00 42.11566 21.28098 15416 ft 362 kts 126°
2026-04-20 15:00 42.10157 21.30838 15052 ft 359 kts 126°
2026-04-20 15:00 42.08737 21.33602 14753 ft 353 kts 126°
2026-04-20 15:00 42.07354 21.36287 14626 ft 343 kts 126°
2026-04-20 15:01 42.06006 21.38896 14483 ft 335 kts 126°
2026-04-20 15:01 42.04698 21.41430 14228 ft 330 kts 126°
2026-04-20 15:01 42.03392 21.43963 13932 ft 328 kts 126°
2026-04-20 15:01 42.02094 21.46476 13634 ft 326 kts 126°
2026-04-20 15:02 42.00811 21.48954 13309 ft 323 kts 126°
2026-04-20 15:02 41.99524 21.51439 12976 ft 321 kts 126°
2026-04-20 15:02 41.98253 21.53894 12657 ft 318 kts 126°
2026-04-20 15:02 41.97004 21.56305 12348 ft 316 kts 126°
2026-04-20 15:03 41.95749 21.58730 12066 ft 314 kts 126°
2026-04-20 15:03 41.94468 21.61092 11778 ft 311 kts 133°
2026-04-20 15:03 41.92853 21.63027 11307 ft 313 kts 144°
2026-04-20 15:03 41.91102 21.64778 10733 ft 321 kts 145°
2026-04-20 15:04 41.89297 21.66540 10486 ft 316 kts 146°
2026-04-20 15:04 41.88452 21.67362 10425 ft 311 kts 146°
2026-04-20 15:10 41.88305 21.67503 10419 ft 309 kts 147°
2026-04-20 15:10 41.86571 21.69156 10251 ft 301 kts 146°
2026-04-20 15:10 41.84906 21.70771 9996 ft 298 kts 145°
2026-04-20 15:11 41.83229 21.72391 9560 ft 293 kts 146°
2026-04-20 15:11 41.81573 21.73980 8987 ft 291 kts 145°
2026-04-20 15:11 41.79928 21.75549 8432 ft 288 kts 145°
2026-04-20 15:11 41.78305 21.77083 7880 ft 286 kts 145°
2026-04-20 15:12 41.76592 21.78366 7318 ft 281 kts 165°
2026-04-20 15:12 41.74671 21.78556 6739 ft 276 kts 192°
2026-04-20 15:12 41.72940 21.77545 6202 ft 271 kts 220°
2026-04-20 15:12 41.71712 21.75733 5890 ft 257 kts 234°
2026-04-20 15:13 41.70823 21.73758 5687 ft 240 kts 255°
2026-04-20 15:13 41.70734 21.71623 5292 ft 232 kts 281°
2026-04-20 15:13 41.71307 21.69629 4968 ft 229 kts 303°
2026-04-20 15:13 41.72409 21.68143 4843 ft 223 kts 328°
2026-04-20 15:14 41.73851 21.67429 4669 ft 220 kts 353°
2026-04-20 15:14 41.75347 21.67583 4545 ft 215 kts 17°
2026-04-20 15:14 41.76730 21.68216 4414 ft 208 kts 11°
2026-04-20 15:14 41.78146 21.68263 4269 ft 201 kts 348°
2026-04-20 15:15 41.79479 21.67857 4158 ft 189 kts 346°
2026-04-20 15:15 41.80737 21.67465 3953 ft 183 kts 346°
2026-04-20 15:15 41.81979 21.67074 3592 ft 188 kts 347°
2026-04-20 15:15 41.83209 21.66672 3410 ft 177 kts 346°
2026-04-20 15:16 41.84377 21.66272 3137 ft 173 kts 345°
2026-04-20 15:16 41.85529 21.65874 2878 ft 168 kts 345°
2026-04-20 15:16 41.86654 21.65486 2643 ft 163 kts 345°
2026-04-20 15:16 41.87717 21.65120 2490 ft 150 kts 345°
2026-04-20 15:17 41.88696 21.64774 2275 ft 145 kts 345°
2026-04-20 15:17 41.89661 21.64387 2009 ft 144 kts 345°
2026-04-20 15:17 41.90613 21.64018 1774 ft 141 kts 347°
2026-04-20 15:17 41.91559 21.63736 1524 ft 137 kts 349°
2026-04-20 15:18 41.92476 21.63435 1313 ft 137 kts 347°
2026-04-20 15:18 41.93404 21.63114 1113 ft 138 kts 347°
2026-04-20 15:18 41.94328 21.62791 908 ft 136 kts 347°
2026-04-20 15:18 41.95239 21.62463 780 ft 129 kts 346°
2026-04-20 15:19 41.95959 21.62217 782 ft 84 kts 345°
2026-04-20 15:19 41.96334 21.62086 786 ft 45 kts 345°
2026-04-20 15:19 41.96494 21.62079 786 ft 10 kts 79°
2026-04-20 15:19 41.96512 21.62160 786 ft 0 kts 74°
2026-04-20 15:22 41.96515 21.62175 820 ft 3 kts 73°
2026-04-20 15:22 41.96522 21.62256 814 ft 14 kts 108°
2026-04-20 15:22 41.96433 21.62314 814 ft 17 kts 163°
2026-04-20 15:22 41.96270 21.62374 811 ft 27 kts 166°
2026-04-20 15:23 41.96133 21.62434 810 ft 15 kts 132°
2026-04-20 15:23 41.96107 21.62552 813 ft 10 kts 101°
2026-04-20 15:23 41.96104 21.62571 809 ft 0 kts 101°